[[{"header":{"parameterUnit":"m.s-1","parameterCategory":2,"la1":30.2991,"la2":30.254,"lo1":-89.0895,"lo2":-89.0444,"dy":0.0017,"dx":0.0017,"nx":28,"ny":28,"refTime":"2025-11-25T03:00:00:Z","depth":"0","parameterNumber":2,"parameterNumberName":"U-component_of_CURRENTS"},"data":[0,0,0,0,0,0,0,0,0,0,0,0,0,0,0,0,0,0,0,0,0,0,0,0,0,0,0,0,0,0,0,0,0,0,0,0,0,0,0,0,0,0,0,0,0,0,0,0,0,0,0,0,0,0,0,0,0,0,-0.3047,-0.3048,0,-0.3097,-0.3097,-0.3098,-0.3063,-0.3062,-0.306,-0.3059,-0.3038,-0.3039,-0.3039,0,0,0,0,0,0,0,0,0,0,0,0,0,-0.2919,-0.2921,-0.3047,-0.3048,-0.3049,-0.3097,-0.3097,-0.3098,-0.3063,-0.3062,-0.306,-0.3059,-0.3038,-0.3039,-0.3039,0,0,0,0,0,0,0,0,0,0,0,0,0,-0.2969,-0.2922,-0.3047,-0.3039,-0.304,-0.3097,-0.3098,-0.3098,-0.3064,-0.3062,-0.306,-0.3058,-0.3038,-0.3038,-0.3039,-0.3084,0,0,-0.3042,-0.3043,0,0,0,0,0,0,0,0,-0.2966,-0.2974,-0.304,-0.304,-0.304,-0.3075,-0.3045,-0.3091,-0.3064,-0.3051,-0.3059,-0.3057,-0.3047,-0.3047,-0.3057,-0.3083,-0.3082,-0.3042,-0.3043,-0.3043,-0.3044,0,0,0,0,0,0,0,-0.2963,-0.2971,-0.3063,-0.3041,-0.3041,-0.3033,-0.3038,-0.3053,-0.3055,-0.3052,-0.3051,-0.3062,-0.3046,-0.3057,-0.3057,-0.3081,-0.3042,-0.3043,-0.3044,-0.3044,-0.3114,-0.3115,0,0,0,0,0,0,-0.2966,-0.2969,-0.3062,-0.3065,-0.3001,-0.3038,-0.3043,-0.3063,-0.3057,-0.3056,-0.3063,-0.306,-0.3056,-0.3055,-0.3056,-0.3079,-0.3043,-0.3044,-0.3045,-0.3113,-0.3114,-0.3116,0,0,0,0,0,0,-0.2963,-0.2974,-0.306,-0.3019,-0.303,-0.3042,-0.3065,-0.3065,-0.3068,-0.3067,-0.3063,-0.3065,-0.3054,-0.3054,-0.3069,-0.3079,-0.3045,-0.3046,-0.3111,-0.3113,-0.3115,-0.3144,0,0,0,0,0,0,-0.296,-0.2973,-0.2984,-0.302,-0.3033,-0.3095,-0.3067,-0.3068,-0.308,-0.3076,-0.3068,-0.3064,-0.3053,-0.3068,-0.307,-0.3079,-0.3046,-0.3109,-0.3112,-0.3114,-0.3142,-0.3147,-0.3151,0,0,0,0,0,-0.2955,-0.2981,-0.2985,-0.2996,-0.305,-0.3096,-0.3102,-0.3101,-0.3082,-0.3093,-0.3086,-0.3064,-0.3084,-0.307,-0.3072,-0.3082,-0.3108,-0.3111,-0.3114,-0.3139,-0.3146,-0.3151,0,0,0,0,0,0,-0.2928,-0.2982,-0.2986,-0.3026,-0.3059,-0.3091,-0.3102,-0.3106,-0.3112,-0.3101,-0.3086,-0.3084,-0.3099,-0.3096,-0.308,-0.3111,-0.3091,-0.3095,-0.311,-0.3116,-0.312,-0.3109,-0.3047,0,0,0,0,0,-0.2932,-0.296,-0.3011,-0.3037,-0.3057,-0.308,-0.3096,-0.3103,-0.3118,-0.3117,-0.3114,-0.3111,-0.3119,-0.3119,-0.3127,-0.315,-0.3131,-0.3157,-0.3162,-0.3166,-0.316,-0.3153,-0.3156,-0.3125,-0.3125,-0.3125,0,0,-0.2924,-0.296,-0.2972,-0.3033,-0.3054,-0.3089,-0.3083,-0.3116,-0.3134,-0.3116,-0.313,-0.3131,-0.313,-0.315,-0.3156,-0.3143,-0.3166,-0.317,-0.3173,-0.3165,-0.3156,-0.3159,-0.3161,-0.3127,-0.3127,-0.3126,0,0,-0.2927,-0.2961,-0.2985,-0.3022,-0.3069,-0.3093,-0.3104,-0.3144,-0.3148,-0.3178,-0.3163,-0.3171,-0.3188,-0.3185,-0.3186,-0.3228,-0.3194,-0.3232,-0.3243,-0.3237,-0.3239,-0.324,-0.3218,-0.3217,-0.3231,-0.3231,-0.3231,0,-0.2913,-0.2957,-0.2998,-0.3036,-0.3062,-0.3095,-0.3126,-0.3151,-0.3185,-0.3194,-0.3183,-0.3206,-0.3203,-0.3219,-0.3229,-0.3236,-0.3221,-0.3218,-0.3241,-0.3242,-0.3243,-0.322,-0.3218,-0.3233,-0.3233,-0.3232,-0.3232,0,-0.2936,-0.2973,-0.2993,-0.3049,-0.3086,-0.3121,-0.3169,-0.3196,-0.3206,-0.3224,-0.3246,-0.3249,-0.3255,-0.3262,-0.3255,-0.3266,-0.325,-0.3249,-0.3221,-0.3248,-0.3222,-0.322,-0.3235,-0.3235,-0.3234,-0.3234,0,0,-0.2889,-0.2988,-0.299,-0.3019,-0.3096,-0.3127,-0.3174,-0.3222,-0.3242,-0.3267,-0.3284,-0.3299,-0.3293,-0.3294,-0.329,-0.3285,-0.3277,-0.3268,-0.3267,-0.3235,-0.3249,-0.3167,-0.3157,-0.3279,-0.3279,-0.3279,-0.3227,0,-0.2885,-0.295,-0.3005,-0.3055,-0.3091,-0.315,-0.3191,-0.3238,-0.327,-0.3298,-0.3305,-0.3318,-0.3309,-0.3308,-0.3304,-0.3292,-0.3274,-0.329,-0.3237,-0.3235,-0.315,-0.3153,-0.303,-0.2968,-0.3225,-0.3225,-0.3224,0,-0.2876,-0.2927,-0.2977,-0.3063,-0.3083,-0.3118,-0.3184,-0.3228,-0.3286,-0.3307,-0.3327,-0.3337,-0.3342,-0.3325,-0.3303,-0.3313,-0.3277,-0.326,-0.3258,-0.3166,-0.3149,-0.2984,-0.2954,-0.2935,-0.3221,-0.3221,-0.3221,0,-0.2805,-0.2899,-0.2934,-0.2964,-0.3071,-0.3096,-0.3144,-0.3217,-0.3253,-0.3303,-0.3327,-0.3343,-0.3342,-0.3319,-0.3286,-0.3294,-0.3248,-0.3256,-0.3144,-0.3137,-0.3013,-0.2995,-0.2945,-0.322,-0.322,-0.322,-0.322,0,-0.2774,-0.2798,-0.2902,-0.2922,-0.2959,-0.305,-0.309,-0.3144,-0.3222,-0.3254,-0.3312,-0.3328,-0.3339,-0.3323,-0.3288,-0.3201,-0.3245,-0.3134,-0.3116,-0.302,-0.3005,-0.2967,-0.2994,-0.3218,-0.3218,-0.3219,-0.3219,0,-0.2677,-0.2753,-0.2793,-0.2897,-0.2925,-0.2943,-0.3047,-0.308,-0.3169,-0.3211,-0.3226,-0.3307,-0.3286,-0.3277,-0.3237,-0.3187,-0.3067,-0.3077,-0.2954,-0.2922,-0.2797,-0.283,-0.2751,-0.2674,-0.2948,-0.2946,-0.2944,0,-0.2629,-0.2642,-0.2738,-0.2756,-0.2795,-0.285,-0.2889,-0.3014,-0.3058,-0.3185,-0.3192,-0.3221,-0.3196,-0.3122,-0.3049,-0.2957,-0.2959,-0.2795,-0.2786,-0.2759,-0.2785,-0.2811,-0.2754,-0.2636,-0.2631,-0.2628,-0.2625,0,-0.2521,-0.2553,-0.2587,-0.2628,-0.2666,-0.2715,-0.2785,-0.2821,-0.2965,-0.3008,-0.3055,-0.3051,-0.302,-0.2888,-0.2793,-0.2726,-0.2728,-0.2717,-0.2722,-0.2555,-0.2547,-0.2473,-0.2706,-0.2593,-0.2596,-0.2599,-0.26,-0.2602,-0.2412,-0.2405,-0.2449,-0.247,-0.2515,-0.2541,-0.2529,-0.2629,-0.2667,-0.2712,-0.2833,-0.2793,-0.2763,-0.2613,-0.2548,-0.2413,-0.2486,-0.235,-0.2397,-0.2431,-0.2336,-0.2489,-0.2341,-0.2342,-0.2344,-0.2345,-0.2346,0,-0.2264,-0.2276,-0.229,-0.2312,-0.2292,-0.2371,-0.2422,-0.2389,-0.2371,-0.2467,-0.2477,-0.2474,-0.2346,-0.2335,-0.223,-0.2133,-0.2086,-0.2094,-0.2112,-0.2071,-0.2218,-0.2183,-0.1952,-0.1952,-0.1952,-0.1952,-0.1952,-0.1952,-0.2187,-0.2144,-0.2154,-0.207,-0.2081,-0.2,-0.1986,-0.1969,-0.1998,-0.1979,-0.2022,-0.2113,-0.2135,-0.2276,-0.2136,-0.2027,-0.1988,-0.1921,-0.1961,-0.2093,-0.2121,-0.2149,-0.2121,-0.1881,-0.1881,-0.1729,-0.1728,-0.1727]},{"header":{"parameterUnit":"m.s-1","parameterCategory":2,"la1":30.2991,"la2":30.254,"lo1":-89.0895,"lo2":-89.0444,"dy":0.0017,"dx":0.0017,"nx":28,"ny":28,"refTime":"2025-11-25T03:00:00:Z","depth":"0","parameterNumber":3,"parameterNumberName":"V-component_of_CURRENTS"},"data":[0,0,0,0,0,0,0,0,0,0,0,0,0,0,0,0,0,0,0,0,0,0,0,0,0,0,0,0,0,0,0,0,0,0,0,0,0,0,0,0,0,0,0,0,0,0,0,0,0,0,0,0,0,0,0,0,0,0,-0.0172,-0.0171,0,-0.0067,-0.0065,-0.0064,0.0013,0.0014,0.0014,0.0015,0.0176,0.018,0.0184,0,0,0,0,0,0,0,0,0,0,0,0,0,-0.0232,-0.0232,-0.0172,-0.0171,-0.0169,-0.0067,-0.0065,-0.0064,0.0013,0.0014,0.0014,0.0015,0.0175,0.018,0.0184,0,0,0,0,0,0,0,0,0,0,0,0,0,-0.0173,-0.0232,-0.0172,-0.012,-0.0114,-0.0067,-0.0065,-0.0063,0.0013,0.0014,0.0015,0.0015,0.0174,0.0179,0.0185,0.0205,0,0,0.0202,0.0205,0,0,0,0,0,0,0,0,-0.0177,-0.0171,-0.0129,-0.0123,-0.0117,-0.004,-0.0027,0.0029,0.0013,-0.0033,0.0015,0.0016,0.0107,0.0119,0.0138,0.0213,0.0219,0.0203,0.0206,0.0209,0.021,0,0,0,0,0,0,0,-0.0181,-0.0175,-0.0128,-0.0128,-0.0121,-0.0077,-0.0068,-0.0016,0.0034,-0.0029,-0.0024,-0.0015,0.0111,0.0133,0.0143,0.0222,0.0203,0.0208,0.0211,0.0214,0.0342,0.0341,0,0,0,0,0,0,-0.0202,-0.0179,-0.0132,-0.0125,-0.0148,-0.0077,-0.0067,-0.0064,0.0032,0.0047,-0.0016,-0.0012,0.0122,0.0136,0.0149,0.0185,0.0209,0.0214,0.0217,0.0342,0.0341,0.0341,0,0,0,0,0,0,-0.0204,-0.0199,-0.0136,-0.015,-0.014,-0.0077,-0.0075,-0.0063,-0.0041,0.0041,0.0058,-0.0007,0.0124,0.0141,0.0193,0.0191,0.0217,0.0222,0.0342,0.0342,0.0341,0.0253,0,0,0,0,0,0,-0.0206,-0.0201,-0.0208,-0.0152,-0.014,-0.0118,-0.0075,-0.0061,-0.0038,-0.0032,0.0054,0.007,0.0125,0.0184,0.0198,0.02,0.0226,0.0342,0.0342,0.0341,0.0256,0.025,0.0244,0,0,0,0,0,-0.0209,-0.0227,-0.0209,-0.0203,-0.0151,-0.0119,-0.0108,-0.0059,-0.0039,-0.0036,0.0025,0.0068,0.0194,0.0188,0.0205,0.0208,0.0342,0.0342,0.0341,0.0258,0.0251,0.0245,0,0,0,0,0,0,-0.0257,-0.0219,-0.0198,-0.0203,-0.0168,-0.0107,-0.0102,-0.0068,-0.0019,-0.0012,0.0067,0.0087,0.0131,0.0181,0.0173,0.0245,0.0275,0.0278,0.0206,0.0199,0.0194,0.0173,0.0231,0,0,0,0,0,-0.0273,-0.0275,-0.0227,-0.0231,-0.0219,-0.0162,-0.0143,-0.0111,-0.006,-0.0038,0.0023,0.0088,0.0143,0.0179,0.0232,0.0272,0.0327,0.0287,0.0281,0.0276,0.0271,0.0346,0.0346,0.0341,0.0341,0.0341,0,0,-0.0293,-0.0272,-0.0273,-0.0242,-0.021,-0.0201,-0.0148,-0.0129,-0.0115,-0.0028,0.0008,0.0067,0.0148,0.0192,0.0217,0.0235,0.0306,0.0275,0.027,0.0269,0.0346,0.0346,0.0347,0.0341,0.0341,0.0341,0,0,-0.0338,-0.0317,-0.0334,-0.0311,-0.0274,-0.0237,-0.0236,-0.018,-0.0148,-0.0109,-0.0043,0.0016,0.0097,0.0159,0.02,0.0197,0.0267,0.0212,0.0176,0.0247,0.0248,0.025,0.0317,0.0325,0.0216,0.0215,0.0215,0,-0.0365,-0.0377,-0.0334,-0.0342,-0.033,-0.026,-0.0272,-0.0229,-0.0161,-0.0134,-0.0111,0.0018,0.0083,0.0152,0.015,0.0184,0.0232,0.0192,0.0239,0.0242,0.0245,0.0314,0.0324,0.0211,0.0212,0.0212,0.0213,0,-0.0419,-0.0426,-0.0435,-0.0421,-0.0402,-0.0401,-0.0341,-0.0311,-0.0265,-0.0214,-0.0144,-0.0051,0.0029,0.0058,0.0104,0.0159,0.0188,0.0216,0.0251,0.024,0.0313,0.0325,0.0205,0.0207,0.0208,0.0209,0,0,-0.0484,-0.0477,-0.048,-0.0489,-0.0445,-0.0437,-0.041,-0.0363,-0.0339,-0.0263,-0.0221,-0.0122,-0.0064,-0.0014,0.006,0.0125,0.0188,0.017,0.0175,0.0227,0.0343,0.0391,0.0409,0.022,0.0222,0.0223,0.0385,0,-0.0539,-0.0584,-0.0554,-0.0583,-0.0599,-0.0529,-0.0511,-0.0455,-0.0386,-0.0326,-0.0216,-0.0152,-0.0092,-0.0052,0.0022,0.0148,0.0216,0.0141,0.0355,0.0362,0.0398,0.0424,0.0467,0.0617,0.0397,0.0399,0.0401,0,-0.0599,-0.0622,-0.067,-0.0668,-0.0667,-0.0664,-0.0615,-0.0587,-0.0479,-0.0424,-0.033,-0.0239,-0.0123,-0.0077,0.0132,0.008,0.0197,0.0294,0.0304,0.0387,0.0432,0.0596,0.0648,0.0836,0.042,0.0419,0.0418,0,-0.0674,-0.0698,-0.0742,-0.0742,-0.0727,-0.0725,-0.0704,-0.062,-0.0592,-0.0479,-0.0437,-0.0288,-0.0204,-0.0044,0.0164,0.0147,0.0397,0.0405,0.0561,0.0566,0.0666,0.0677,0.0919,0.0546,0.0545,0.0545,0.0544,0,-0.0746,-0.0778,-0.0783,-0.0809,-0.085,-0.0804,-0.081,-0.0759,-0.0677,-0.064,-0.0495,-0.0417,-0.0194,-0.0018,0.0155,0.0408,0.04,0.0564,0.0616,0.0636,0.0642,0.0861,0.092,0.0551,0.0549,0.0548,0.0547,0,-0.082,-0.0823,-0.0876,-0.0885,-0.089,-0.0918,-0.0896,-0.0889,-0.0799,-0.074,-0.0709,-0.0505,-0.0268,-0.0027,0.0256,0.0403,0.0755,0.0721,0.0728,0.0777,0.1067,0.1118,0.1393,0.1497,0.0908,0.091,0.0912,0,-0.0862,-0.0898,-0.0946,-0.0984,-0.0992,-0.1018,-0.1032,-0.0963,-0.0942,-0.0783,-0.0756,-0.052,-0.0324,0.0118,0.0423,0.0751,0.0884,0.0964,0.0937,0.1106,0.1201,0.1232,0.13,0.1041,0.1044,0.1046,0.1048,0,-0.0938,-0.0952,-0.0997,-0.1083,-0.1119,-0.1153,-0.1157,-0.116,-0.1059,-0.097,-0.08,-0.0627,-0.0186,0.0218,0.0638,0.0834,0.1098,0.1018,0.1209,0.134,0.1376,0.1493,0.0906,0.1068,0.1066,0.1065,0.1064,0.1063,-0.0981,-0.1037,-0.1098,-0.1172,-0.1222,-0.1266,-0.1281,-0.1248,-0.1192,-0.1026,-0.0849,-0.0536,0.0041,0.0652,0.0878,0.135,0.1289,0.1483,0.1536,0.1556,0.1645,0.1092,0.1296,0.1295,0.1294,0.1294,0.1293,0,-0.1034,-0.1096,-0.1181,-0.1265,-0.1331,-0.133,-0.1343,-0.1311,-0.1231,-0.1026,-0.081,-0.015,0.042,0.0943,0.1601,0.1854,0.1903,0.1982,0.2052,0.21,0.1646,0.1641,0.191,0.1909,0.1909,0.1909,0.1909,0.1909,-0.1063,-0.1155,-0.1204,-0.1328,-0.1384,-0.1425,-0.1424,-0.1338,-0.1185,-0.0805,-0.0426,-0.0109,0.0642,0.1686,0.2291,0.2347,0.2555,0.2537,0.2643,0.2341,0.2298,0.2257,0.2271,0.2668,0.2668,0.309,0.3094,0.3097]}],[{"header":{"parameterUnit":"m.s-1","parameterCategory":2,"la1":30.2991,"la2":30.254,"lo1":-89.0895,"lo2":-89.0444,"dy":0.0017,"dx":0.0017,"nx":28,"ny":28,"refTime":"2025-11-25T03:00:00:Z","depth":"2","parameterNumber":2,"parameterNumberName":"U-component_of_CURRENTS"},"data":[0,0,0,0,0,0,0,0,0,0,0,0,0,0,0,0,0,0,0,0,0,0,0,0,0,0,0,0,0,0,0,0,0,0,0,0,0,0,0,0,0,0,0,0,0,0,0,0,0,0,0,0,0,0,0,0,0,0,-0.2783,-0.2784,0,-0.2834,-0.2834,-0.2835,-0.2811,-0.281,-0.2809,-0.2808,-0.2799,-0.28,-0.2801,0,0,0,0,0,0,0,0,0,0,0,0,0,-0.2665,-0.2667,-0.2783,-0.2784,-0.2785,-0.2834,-0.2834,-0.2835,-0.2812,-0.281,-0.2809,-0.2808,-0.2799,-0.28,-0.2801,0,0,0,0,0,0,0,0,0,0,0,0,0,-0.2713,-0.2668,-0.2783,-0.2781,-0.2782,-0.2834,-0.2834,-0.2835,-0.2812,-0.281,-0.2809,-0.2807,-0.2799,-0.28,-0.2801,-0.2838,0,0,-0.2804,-0.2804,0,0,0,0,0,0,0,0,-0.2711,-0.2717,-0.2781,-0.2781,-0.2782,-0.2817,-0.279,-0.2834,-0.2812,-0.2797,-0.2808,-0.2807,-0.2803,-0.2803,-0.2813,-0.2837,-0.2837,-0.2804,-0.2805,-0.2805,-0.2805,0,0,0,0,0,0,0,-0.2707,-0.2715,-0.28,-0.2782,-0.2783,-0.2778,-0.2783,-0.2798,-0.2805,-0.2799,-0.2798,-0.2809,-0.2802,-0.2812,-0.2813,-0.2837,-0.2804,-0.2805,-0.2806,-0.2806,-0.2878,-0.2879,0,0,0,0,0,0,-0.2709,-0.2712,-0.2799,-0.2802,-0.2745,-0.2782,-0.2787,-0.2805,-0.2806,-0.2806,-0.281,-0.2807,-0.2811,-0.2811,-0.2812,-0.2843,-0.2805,-0.2806,-0.2807,-0.2877,-0.2878,-0.2879,0,0,0,0,0,0,-0.2707,-0.2717,-0.2797,-0.276,-0.277,-0.2786,-0.2806,-0.2807,-0.2816,-0.2815,-0.2813,-0.2817,-0.281,-0.2811,-0.283,-0.2843,-0.2807,-0.2808,-0.2875,-0.2877,-0.2879,-0.2914,0,0,0,0,0,0,-0.2703,-0.2716,-0.2727,-0.276,-0.2772,-0.2831,-0.2808,-0.2809,-0.2826,-0.2823,-0.2821,-0.2819,-0.2809,-0.2828,-0.2831,-0.2844,-0.2808,-0.2873,-0.2876,-0.2878,-0.2911,-0.2917,-0.2921,0,0,0,0,0,-0.2699,-0.2723,-0.2728,-0.2738,-0.2789,-0.2833,-0.2838,-0.2841,-0.2828,-0.2841,-0.2838,-0.2819,-0.2845,-0.2831,-0.2833,-0.2847,-0.2872,-0.2875,-0.2878,-0.2909,-0.2915,-0.2921,0,0,0,0,0,0,-0.2676,-0.2724,-0.273,-0.2767,-0.2799,-0.2829,-0.2843,-0.2848,-0.2859,-0.2852,-0.2841,-0.284,-0.286,-0.2856,-0.284,-0.2876,-0.2854,-0.2857,-0.2876,-0.2883,-0.2888,-0.2878,-0.2809,0,0,0,0,0,-0.268,-0.2706,-0.2752,-0.2778,-0.2797,-0.2821,-0.2838,-0.2847,-0.2864,-0.2866,-0.2867,-0.2868,-0.2877,-0.288,-0.2889,-0.2914,-0.2896,-0.2924,-0.2929,-0.2934,-0.2929,-0.2923,-0.2926,-0.2889,-0.2889,-0.2889,0,0,-0.2674,-0.2706,-0.2718,-0.2774,-0.2796,-0.2831,-0.2826,-0.286,-0.2881,-0.2865,-0.2886,-0.289,-0.289,-0.2912,-0.2921,-0.2908,-0.2936,-0.2937,-0.2941,-0.2933,-0.2926,-0.2929,-0.2932,-0.2891,-0.289,-0.289,0,0,-0.2678,-0.271,-0.2733,-0.2768,-0.2815,-0.2838,-0.285,-0.2891,-0.2899,-0.2933,-0.2921,-0.2932,-0.2953,-0.2952,-0.2953,-0.2997,-0.2965,-0.3002,-0.3018,-0.3013,-0.3015,-0.3017,-0.2997,-0.2997,-0.3002,-0.3002,-0.3002,0,-0.2667,-0.2708,-0.2745,-0.2783,-0.2809,-0.2842,-0.2874,-0.2899,-0.2937,-0.2948,-0.2941,-0.2971,-0.2969,-0.2989,-0.3,-0.3006,-0.2993,-0.2991,-0.3017,-0.3019,-0.302,-0.2999,-0.2999,-0.3004,-0.3004,-0.3004,-0.3004,0,-0.269,-0.2726,-0.2746,-0.2801,-0.2837,-0.2872,-0.2919,-0.2949,-0.2964,-0.2984,-0.3012,-0.3017,-0.3028,-0.3035,-0.3029,-0.3044,-0.3028,-0.3025,-0.2996,-0.3026,-0.3002,-0.3001,-0.3007,-0.3006,-0.3006,-0.3005,0,0,-0.2648,-0.2742,-0.2746,-0.2775,-0.285,-0.288,-0.2929,-0.2978,-0.3002,-0.3033,-0.3054,-0.3073,-0.3072,-0.3073,-0.3071,-0.3067,-0.3065,-0.305,-0.3049,-0.3021,-0.3042,-0.2961,-0.2951,-0.3065,-0.3065,-0.3065,-0.3021,0,-0.2648,-0.2711,-0.2762,-0.2814,-0.285,-0.2908,-0.295,-0.2999,-0.3033,-0.3066,-0.3077,-0.3096,-0.3088,-0.3092,-0.309,-0.3077,-0.3063,-0.3076,-0.3025,-0.3024,-0.294,-0.2947,-0.2732,-0.2668,-0.3019,-0.3019,-0.3019,0,-0.2642,-0.2691,-0.2743,-0.2826,-0.2846,-0.2883,-0.2952,-0.2996,-0.3057,-0.3082,-0.3107,-0.3119,-0.3129,-0.3113,-0.3095,-0.3105,-0.3071,-0.3054,-0.3052,-0.296,-0.2939,-0.2697,-0.2652,-0.3016,-0.3016,-0.3017,-0.3017,0,-0.2579,-0.267,-0.2707,-0.2737,-0.284,-0.2868,-0.2917,-0.299,-0.3027,-0.3083,-0.3109,-0.313,-0.3133,-0.3114,-0.3083,-0.309,-0.3049,-0.3055,-0.2946,-0.294,-0.2736,-0.2711,-0.3023,-0.3023,-0.3023,-0.3024,-0.3024,0,-0.2553,-0.2579,-0.268,-0.2701,-0.2742,-0.2829,-0.2873,-0.2929,-0.3007,-0.3038,-0.3099,-0.3116,-0.3133,-0.3119,-0.3087,-0.3005,-0.3048,-0.2939,-0.2921,-0.2743,-0.2721,-0.3009,-0.3008,-0.3022,-0.3022,-0.3023,-0.3023,0,-0.2466,-0.2539,-0.2582,-0.2684,-0.2712,-0.2734,-0.2836,-0.2869,-0.2959,-0.3001,-0.3018,-0.3098,-0.308,-0.3077,-0.304,-0.2992,-0.2935,-0.2889,-0.2673,-0.263,-0.283,-0.2831,-0.2771,-0.2768,-0.2765,-0.2763,-0.2761,0,-0.2424,-0.2439,-0.2534,-0.2553,-0.2594,-0.2651,-0.2689,-0.2811,-0.2852,-0.2974,-0.2979,-0.3013,-0.2985,-0.2919,-0.2844,-0.2757,-0.2844,-0.2517,-0.2492,-0.2814,-0.2803,-0.2809,-0.2814,-0.2235,-0.2229,-0.2224,-0.222,0,-0.2327,-0.2361,-0.2396,-0.2437,-0.2476,-0.2522,-0.259,-0.2621,-0.2757,-0.2797,-0.2836,-0.2831,-0.2798,-0.262,-0.2533,-0.2459,-0.252,-0.2413,-0.2788,-0.2343,-0.2307,-0.2298,-0.232,-0.2175,-0.218,-0.2183,-0.2185,-0.2187,-0.2231,-0.2226,-0.227,-0.2292,-0.2335,-0.2355,-0.2342,-0.2429,-0.2458,-0.2483,-0.2601,-0.2517,-0.2511,-0.2263,-0.2154,-0.2075,-0.2247,-0.2145,-0.2161,-0.2181,-0.2138,-0.2101,-0.192,-0.1923,-0.1926,-0.1928,-0.193,0,-0.2096,-0.2108,-0.2122,-0.2143,-0.2121,-0.2199,-0.2238,-0.2192,-0.216,-0.2214,-0.2209,-0.1986,-0.1874,-0.1875,-0.1686,-0.1658,-0.1641,-0.1589,-0.1566,-0.161,-0.165,-0.158,-0.1214,-0.1212,-0.121,-0.1208,0,0,-0.2026,-0.1986,-0.1993,-0.191,-0.1921,-0.1837,-0.1819,-0.1775,-0.1767,-0.167,-0.1628,-0.1768,-0.1809,-0.1511,-0.1447,-0.1299,-0.1437,-0.1232,-0.1804,-0.182,-0.1857,-0.1966,-0.1908,0,0,0,0,0]},{"header":{"parameterUnit":"m.s-1","parameterCategory":2,"la1":30.2991,"la2":30.254,"lo1":-89.0895,"lo2":-89.0444,"dy":0.0017,"dx":0.0017,"nx":28,"ny":28,"refTime":"2025-11-25T03:00:00:Z","depth":"2","parameterNumber":3,"parameterNumberName":"V-component_of_CURRENTS"},"data":[0,0,0,0,0,0,0,0,0,0,0,0,0,0,0,0,0,0,0,0,0,0,0,0,0,0,0,0,0,0,0,0,0,0,0,0,0,0,0,0,0,0,0,0,0,0,0,0,0,0,0,0,0,0,0,0,0,0,-0.0254,-0.0253,0,-0.0157,-0.0156,-0.0154,-0.0082,-0.0081,-0.0081,-0.008,0.0071,0.0074,0.0078,0,0,0,0,0,0,0,0,0,0,0,0,0,-0.0308,-0.0307,-0.0254,-0.0253,-0.0252,-0.0157,-0.0156,-0.0154,-0.0082,-0.0081,-0.0081,-0.008,0.007,0.0074,0.0078,0,0,0,0,0,0,0,0,0,0,0,0,0,-0.0254,-0.0307,-0.0254,-0.0206,-0.02,-0.0157,-0.0156,-0.0154,-0.0082,-0.0081,-0.008,-0.008,0.0068,0.0073,0.0079,0.0096,0,0,0.0095,0.0097,0,0,0,0,0,0,0,0,-0.0257,-0.0252,-0.0214,-0.0209,-0.0203,-0.0132,-0.0119,-0.0068,-0.0082,-0.0125,-0.008,-0.0079,0.0006,0.0017,0.0035,0.0103,0.011,0.0095,0.0099,0.0101,0.0102,0,0,0,0,0,0,0,-0.0261,-0.0255,-0.0214,-0.0213,-0.0206,-0.0165,-0.0157,-0.0109,-0.0063,-0.0121,-0.0116,-0.0108,0.001,0.0029,0.0039,0.0112,0.0095,0.01,0.0103,0.0105,0.0225,0.0225,0,0,0,0,0,0,-0.028,-0.0259,-0.0217,-0.0211,-0.023,-0.0165,-0.0156,-0.0154,-0.0064,-0.0051,-0.0109,-0.0105,0.002,0.0033,0.0045,0.0081,0.0101,0.0106,0.0109,0.0225,0.0225,0.0225,0,0,0,0,0,0,-0.0282,-0.0278,-0.0221,-0.0233,-0.0224,-0.0166,-0.0164,-0.0153,-0.0132,-0.0056,-0.0041,-0.01,0.0021,0.0037,0.0086,0.0087,0.0108,0.0113,0.0225,0.0225,0.0225,0.0148,0,0,0,0,0,0,-0.0284,-0.0279,-0.0286,-0.0235,-0.0224,-0.0204,-0.0164,-0.0152,-0.0129,-0.0123,-0.0043,-0.0028,0.0023,0.0078,0.0091,0.0095,0.0117,0.0225,0.0225,0.0225,0.0151,0.0145,0.0141,0,0,0,0,0,-0.0287,-0.0303,-0.0287,-0.0282,-0.0235,-0.0205,-0.0195,-0.015,-0.013,-0.0127,-0.007,-0.003,0.0088,0.0082,0.0098,0.0103,0.0225,0.0225,0.0225,0.0153,0.0146,0.0141,0,0,0,0,0,0,-0.0331,-0.0296,-0.0277,-0.0283,-0.025,-0.0194,-0.0189,-0.0157,-0.0111,-0.0104,-0.003,-0.0012,0.003,0.0076,0.0068,0.0138,0.0163,0.0166,0.0103,0.0097,0.0092,0.0074,0.0122,0,0,0,0,0,-0.0345,-0.0348,-0.0304,-0.0308,-0.0296,-0.0244,-0.0226,-0.0196,-0.0149,-0.0128,-0.0071,-0.001,0.0042,0.0075,0.0124,0.0163,0.0213,0.0178,0.0173,0.0168,0.0164,0.0236,0.0237,0.0224,0.0224,0.0224,0,0,-0.0364,-0.0345,-0.0346,-0.0318,-0.0288,-0.0279,-0.0231,-0.0213,-0.0198,-0.0119,-0.0083,-0.0029,0.0046,0.0088,0.0112,0.0129,0.0198,0.0168,0.0164,0.0162,0.0236,0.0237,0.0239,0.0224,0.0224,0.0224,0,0,-0.0405,-0.0386,-0.0402,-0.038,-0.0346,-0.0311,-0.0311,-0.0258,-0.0228,-0.019,-0.0129,-0.0073,0.0002,0.0062,0.01,0.0099,0.0163,0.0112,0.0083,0.0152,0.0153,0.0155,0.0215,0.0224,0.0117,0.0117,0.0117,0,-0.0429,-0.0441,-0.0401,-0.0408,-0.0396,-0.0332,-0.0342,-0.0302,-0.0238,-0.0212,-0.0191,-0.0069,-0.0008,0.0059,0.0058,0.0089,0.0133,0.0096,0.0145,0.0148,0.0151,0.0213,0.0223,0.0113,0.0114,0.0114,0.0114,0,-0.0478,-0.0484,-0.0492,-0.0478,-0.046,-0.0458,-0.0402,-0.0374,-0.033,-0.0282,-0.0215,-0.0128,-0.0052,-0.0024,0.0017,0.0073,0.0097,0.0123,0.0155,0.0148,0.0213,0.0225,0.0108,0.0109,0.011,0.0111,0,0,-0.0539,-0.0531,-0.0533,-0.054,-0.0498,-0.0491,-0.0464,-0.0418,-0.0395,-0.0322,-0.0281,-0.0187,-0.0132,-0.0085,-0.0016,0.0046,0.0108,0.0086,0.0091,0.0138,0.0254,0.0289,0.0306,0.014,0.0141,0.0143,0.0288,0,-0.0588,-0.0628,-0.06,-0.0623,-0.0637,-0.0572,-0.0554,-0.0501,-0.0436,-0.0379,-0.0273,-0.0213,-0.0155,-0.0118,-0.0046,0.0069,0.0135,0.0066,0.0262,0.0268,0.0294,0.032,0.0272,0.0399,0.03,0.0302,0.0304,0,-0.0643,-0.0663,-0.0705,-0.0701,-0.0699,-0.0697,-0.065,-0.0623,-0.052,-0.0468,-0.0377,-0.0292,-0.0181,-0.0137,0.0059,0.001,0.012,0.021,0.0218,0.0286,0.0325,0.0394,0.0425,0.0324,0.0322,0.0321,0.0319,0,-0.0713,-0.0732,-0.0771,-0.077,-0.0754,-0.0752,-0.0732,-0.0653,-0.0628,-0.0519,-0.0482,-0.0337,-0.0258,-0.0107,0.0085,0.0071,0.0301,0.0313,0.0452,0.0456,0.0472,0.0474,0.0449,0.0449,0.0448,0.0448,0.0448,0,-0.0778,-0.0806,-0.0809,-0.0833,-0.0871,-0.0827,-0.0833,-0.0784,-0.0708,-0.0676,-0.0536,-0.0466,-0.0249,-0.0087,0.0076,0.0307,0.0304,0.0454,0.0501,0.0444,0.0442,0.042,0.0415,0.0454,0.0452,0.0451,0.045,0,-0.0847,-0.0848,-0.0896,-0.0903,-0.0908,-0.0934,-0.0916,-0.0911,-0.0827,-0.0775,-0.0746,-0.0554,-0.0336,-0.0106,0.016,0.0299,0.0511,0.0592,0.0507,0.0541,0.0616,0.0605,0.0755,0.0758,0.076,0.0762,0.0763,0,-0.0886,-0.0919,-0.0963,-0.0999,-0.1006,-0.1031,-0.1046,-0.0982,-0.0964,-0.0822,-0.0799,-0.0581,-0.0404,0.0006,0.0286,0.0591,0.059,0.0711,0.0681,0.062,0.0651,0.0636,0.0623,0.0673,0.0674,0.0674,0.0675,0,-0.0958,-0.0971,-0.1012,-0.1094,-0.113,-0.1163,-0.1169,-0.1174,-0.1082,-0.1004,-0.0855,-0.07,-0.0301,0.0033,0.0422,0.059,0.0656,0.0732,0.0716,0.0596,0.0554,0.0579,0.0567,0.068,0.0679,0.0679,0.0679,0.0678,-0.1001,-0.1053,-0.111,-0.1181,-0.123,-0.1273,-0.129,-0.1262,-0.1214,-0.1068,-0.0914,-0.0643,-0.0324,0.0235,0.0505,0.0752,0.0751,0.0802,0.0796,0.079,0.0748,0.0711,0.0859,0.0859,0.086,0.086,0.086,0,-0.1054,-0.1111,-0.1191,-0.1271,-0.1336,-0.1336,-0.1352,-0.1323,-0.1256,-0.1078,-0.089,-0.0522,-0.0137,0.0202,0.0597,0.083,0.0802,0.0858,0.0768,0.0762,0.0757,0.0709,0.0812,0.0813,0.0813,0.0814,0,0,-0.1083,-0.1169,-0.1214,-0.1335,-0.139,-0.1433,-0.1435,-0.1356,-0.1221,-0.1028,-0.0816,-0.053,-0.0121,0.0143,0.0433,0.0636,0.0637,0.0652,0.0667,0.0521,0.0513,0.0703,0.062,0,0,0,0,0]}],[{"header":{"parameterUnit":"m.s-1","parameterCategory":2,"la1":30.2991,"la2":30.254,"lo1":-89.0895,"lo2":-89.0444,"dy":0.0017,"dx":0.0017,"nx":28,"ny":28,"refTime":"2025-11-25T03:00:00:Z","depth":"4","parameterNumber":2,"parameterNumberName":"U-component_of_CURRENTS"},"data":[0,0,0,0,0,0,0,0,0,0,0,0,0,0,0,0,0,0,0,0,0,0,0,0,0,0,0,0,0,0,0,0,0,0,0,0,0,0,0,0,0,0,0,0,0,0,0,0,0,0,0,0,0,0,0,0,0,0,-0.1932,-0.1933,0,-0.202,-0.2021,-0.2022,-0.2068,-0.2069,-0.2069,-0.2069,-0.2145,-0.2147,-0.2148,0,0,0,0,0,0,0,0,0,0,0,0,0,-0.1803,-0.1805,-0.1931,-0.1933,-0.1934,-0.202,-0.2021,-0.2022,-0.2068,-0.2069,-0.2069,-0.2069,-0.2144,-0.2146,-0.2149,0,0,0,0,0,0,0,0,0,0,0,0,0,-0.187,-0.1806,-0.1931,-0.1969,-0.1973,-0.202,-0.2021,-0.2023,-0.2068,-0.2069,-0.2069,-0.2069,-0.2144,-0.2146,-0.2149,-0.2159,0,0,-0.2157,-0.2158,0,0,0,0,0,0,0,0,-0.1866,-0.1875,-0.1962,-0.1966,-0.1971,-0.2035,-0.2004,-0.2068,-0.2068,-0.203,-0.2069,-0.2069,-0.2108,-0.2114,-0.2127,-0.2162,-0.2165,-0.2157,-0.2159,-0.216,-0.2161,0,0,0,0,0,0,0,-0.1862,-0.1871,-0.1965,-0.1963,-0.1969,-0.1982,-0.1992,-0.2016,-0.2064,-0.2034,-0.2038,-0.205,-0.211,-0.2124,-0.2129,-0.2167,-0.2157,-0.216,-0.2161,-0.2162,-0.2287,-0.2289,0,0,0,0,0,0,-0.1854,-0.1867,-0.1962,-0.1968,-0.1921,-0.1984,-0.1995,-0.2013,-0.2065,-0.2073,-0.205,-0.2052,-0.212,-0.2126,-0.2132,-0.2218,-0.216,-0.2163,-0.2164,-0.2286,-0.2288,-0.229,0,0,0,0,0,0,-0.1851,-0.1862,-0.1959,-0.192,-0.1934,-0.1986,-0.2006,-0.2015,-0.2062,-0.2077,-0.2086,-0.2092,-0.212,-0.2128,-0.2186,-0.2218,-0.2164,-0.2166,-0.2284,-0.2286,-0.2289,-0.2344,0,0,0,0,0,0,-0.1847,-0.1861,-0.1887,-0.192,-0.1936,-0.2008,-0.2006,-0.2016,-0.2068,-0.2072,-0.2116,-0.2121,-0.2121,-0.2182,-0.2188,-0.2221,-0.2169,-0.2281,-0.2285,-0.2288,-0.234,-0.2348,-0.2355,0,0,0,0,0,-0.1843,-0.1872,-0.1888,-0.19,-0.1965,-0.201,-0.202,-0.2055,-0.207,-0.2098,-0.213,-0.2122,-0.2206,-0.2186,-0.2193,-0.2227,-0.228,-0.2284,-0.2288,-0.2337,-0.2347,-0.2355,0,0,0,0,0,0,-0.1832,-0.1881,-0.1899,-0.1943,-0.1984,-0.2019,-0.2054,-0.2076,-0.2124,-0.2139,-0.2148,-0.2156,-0.2216,-0.2218,-0.2195,-0.2273,-0.224,-0.2246,-0.2275,-0.2284,-0.2292,-0.2279,-0.2171,0,0,0,0,0,-0.1841,-0.1877,-0.1921,-0.196,-0.1984,-0.2026,-0.2055,-0.2082,-0.2121,-0.2144,-0.2175,-0.2206,-0.2232,-0.2257,-0.228,-0.2329,-0.2307,-0.2354,-0.2362,-0.2368,-0.2364,-0.2364,-0.2371,-0.2302,-0.2302,-0.2302,0,0,-0.1848,-0.188,-0.1902,-0.1961,-0.1996,-0.2038,-0.2045,-0.2102,-0.2142,-0.2144,-0.2218,-0.2238,-0.2252,-0.2303,-0.2329,-0.2313,-0.2378,-0.2373,-0.2378,-0.237,-0.2369,-0.2375,-0.2381,-0.2305,-0.2304,-0.2304,0,0,-0.1864,-0.191,-0.1942,-0.1982,-0.2045,-0.2071,-0.2095,-0.2154,-0.219,-0.2256,-0.2263,-0.2305,-0.236,-0.2369,-0.2379,-0.2444,-0.2417,-0.246,-0.2491,-0.2493,-0.2498,-0.2502,-0.2483,-0.2485,-0.2465,-0.2465,-0.2465,0,-0.1872,-0.1918,-0.1959,-0.2001,-0.2039,-0.2089,-0.2132,-0.2176,-0.2248,-0.2278,-0.229,-0.2368,-0.2385,-0.2427,-0.245,-0.246,-0.245,-0.2455,-0.2501,-0.2504,-0.2507,-0.2487,-0.2488,-0.2468,-0.2468,-0.2467,-0.2467,0,-0.1901,-0.1955,-0.198,-0.2047,-0.2093,-0.2143,-0.2202,-0.226,-0.231,-0.2344,-0.2416,-0.2441,-0.248,-0.2498,-0.2496,-0.2534,-0.2515,-0.2507,-0.2472,-0.2517,-0.2493,-0.2494,-0.2472,-0.2471,-0.247,-0.247,0,0,-0.187,-0.1979,-0.1991,-0.2034,-0.2125,-0.2162,-0.2239,-0.2309,-0.2357,-0.2427,-0.2479,-0.2532,-0.2546,-0.2558,-0.2565,-0.2572,-0.2589,-0.2556,-0.2555,-0.2528,-0.2581,-0.2419,-0.2403,-0.2592,-0.2593,-0.2593,-0.2554,0,-0.1882,-0.1961,-0.2016,-0.2098,-0.2143,-0.2218,-0.2281,-0.2354,-0.2416,-0.248,-0.2515,-0.2567,-0.2569,-0.2593,-0.2603,-0.2595,-0.2593,-0.2599,-0.2549,-0.2547,-0.239,-0.2399,-0.2595,-0.2554,-0.2554,-0.2554,-0.2554,0,-0.188,-0.1939,-0.202,-0.2127,-0.2155,-0.2215,-0.2319,-0.2382,-0.2473,-0.252,-0.2575,-0.2604,-0.264,-0.2629,-0.2632,-0.2638,-0.2613,-0.2599,-0.2597,-0.2422,-0.2385,-0.2501,-0.2554,-0.2554,-0.2554,-0.2554,-0.2554,0,-0.1819,-0.1936,-0.2002,-0.2041,-0.2169,-0.2226,-0.2295,-0.2397,-0.2448,-0.2543,-0.258,-0.2632,-0.2655,-0.2649,-0.2628,-0.2636,-0.2607,-0.2611,-0.2437,-0.2426,-0.256,-0.2556,-0.2596,-0.2596,-0.2596,-0.2596,-0.2596,0,-0.1788,-0.1845,-0.1987,-0.2023,-0.2101,-0.2204,-0.2287,-0.2362,-0.2462,-0.2501,-0.2592,-0.2608,-0.2663,-0.2656,-0.2632,-0.252,-0.2607,-0.2428,-0.24,-0.2585,-0.2585,-0.256,-0.2556,-0.2594,-0.2595,-0.2595,-0.2595,0,-0.1701,-0.18,-0.188,-0.2028,-0.2075,-0.213,-0.227,-0.2316,-0.2429,-0.2479,-0.2508,-0.2596,-0.2577,-0.2596,-0.2574,-0.2497,-0.2428,-0.2366,-0.255,-0.2536,-0.2248,-0.2248,-0.2165,-0.2159,-0.2154,-0.215,-0.2146,0,-0.1658,-0.1695,-0.1856,-0.19,-0.1972,-0.2074,-0.2131,-0.2275,-0.2312,-0.2438,-0.2433,-0.2478,-0.2507,-0.2334,-0.2386,-0.2311,-0.2287,-0.2239,-0.2251,-0.222,-0.2202,-0.2211,-0.2218,-0.2138,-0.2136,-0.2135,-0.2134,0,-0.1565,-0.164,-0.1705,-0.1795,-0.1873,-0.1942,-0.2036,-0.2047,-0.2186,-0.2317,-0.2279,-0.2262,-0.2234,-0.2209,-0.216,-0.2115,-0.2267,-0.2185,-0.2196,-0.2207,-0.2186,-0.2175,-0.2188,-0.2116,-0.2118,-0.212,-0.2121,0,-0.1491,-0.1509,-0.16,-0.1659,-0.1747,-0.1765,-0.1844,-0.1877,-0.1933,-0.2079,-0.2058,-0.2109,-0.2198,-0.2105,-0.2064,-0.2001,-0.1978,-0.1917,-0.1942,-0.1963,-0.1916,-0.1861,-0.165,0,0,0,0,0,-0.1403,-0.1405,-0.1451,-0.1509,-0.1587,-0.1631,-0.1751,-0.1832,-0.1971,-0.1883,-0.1964,-0.1927,-0.1874,-0.1912,-0.1801,-0.1979,-0.1989,-0.1844,-0.1934,-0.2015,-0.2036,-0.2,0,0,0,0,0,0,-0.1344,-0.1385,-0.1396,-0.1356,-0.1361,-0.1426,-0.149,-0.1595,-0.156,-0.1708,-0.1681,-0.1802,-0.1773,-0.1889,-0.1754,-0.1765,-0.178,-0.1894,-0.1889,-0.2003,-0.2022,-0.2039,-0.201,0,0,0,0,0]},{"header":{"parameterUnit":"m.s-1","parameterCategory":2,"la1":30.2991,"la2":30.254,"lo1":-89.0895,"lo2":-89.0444,"dy":0.0017,"dx":0.0017,"nx":28,"ny":28,"refTime":"2025-11-25T03:00:00:Z","depth":"4","parameterNumber":3,"parameterNumberName":"V-component_of_CURRENTS"},"data":[0,0,0,0,0,0,0,0,0,0,0,0,0,0,0,0,0,0,0,0,0,0,0,0,0,0,0,0,0,0,0,0,0,0,0,0,0,0,0,0,0,0,0,0,0,0,0,0,0,0,0,0,0,0,0,0,0,0,-0.0236,-0.0235,0,-0.0172,-0.0172,-0.0171,-0.0123,-0.0122,-0.0122,-0.0122,-0.0008,-0.0006,-0.0003,0,0,0,0,0,0,0,0,0,0,0,0,0,-0.0263,-0.0263,-0.0236,-0.0235,-0.0235,-0.0173,-0.0172,-0.0171,-0.0123,-0.0122,-0.0122,-0.0122,-0.0009,-0.0006,-0.0003,0,0,0,0,0,0,0,0,0,0,0,0,0,-0.0229,-0.0263,-0.0236,-0.0204,-0.0201,-0.0173,-0.0172,-0.017,-0.0123,-0.0122,-0.0122,-0.0121,-0.001,-0.0006,-0.0002,0.0013,0,0,0.001,0.0012,0,0,0,0,0,0,0,0,-0.0231,-0.0228,-0.021,-0.0207,-0.0203,-0.0156,-0.0139,-0.0107,-0.0123,-0.0151,-0.0122,-0.0121,-0.0055,-0.0047,-0.0035,0.0019,0.0023,0.001,0.0013,0.0015,0.0016,0,0,0,0,0,0,0,-0.0234,-0.023,-0.0209,-0.0209,-0.0205,-0.0175,-0.017,-0.0133,-0.0104,-0.0149,-0.0145,-0.014,-0.0052,-0.0039,-0.0032,0.0025,0.001,0.0014,0.0016,0.0018,0.0112,0.0112,0,0,0,0,0,0,-0.0248,-0.0233,-0.0212,-0.0208,-0.0218,-0.0175,-0.017,-0.017,-0.0106,-0.0096,-0.0141,-0.0139,-0.0046,-0.0036,-0.0027,0.0003,0.0015,0.0018,0.0021,0.0112,0.0112,0.0112,0,0,0,0,0,0,-0.0249,-0.0247,-0.0214,-0.0219,-0.0213,-0.0176,-0.0177,-0.017,-0.0157,-0.0101,-0.009,-0.0137,-0.0045,-0.0033,0.0004,0.0007,0.002,0.0024,0.0112,0.0112,0.0112,0.0059,0,0,0,0,0,0,-0.025,-0.0248,-0.0255,-0.0221,-0.0214,-0.0205,-0.0177,-0.0169,-0.0156,-0.0152,-0.0093,-0.0082,-0.0044,-0.0003,0.0008,0.0013,0.0027,0.0112,0.0112,0.0112,0.006,0.0057,0.0054,0,0,0,0,0,-0.0251,-0.0265,-0.0256,-0.0253,-0.0225,-0.0205,-0.0199,-0.0169,-0.0156,-0.0155,-0.0114,-0.0084,0.0006,0.0001,0.0013,0.002,0.0112,0.0112,0.0112,0.0062,0.0058,0.0054,0,0,0,0,0,0,-0.0281,-0.0261,-0.025,-0.0257,-0.0236,-0.0198,-0.0197,-0.0176,-0.0143,-0.0139,-0.0084,-0.007,-0.0038,-0.0003,-0.001,0.0047,0.0064,0.0066,0.0022,0.0018,0.0015,0.0,0.0031,0,0,0,0,0,-0.0293,-0.0298,-0.027,-0.0277,-0.0269,-0.0234,-0.0224,-0.0204,-0.017,-0.0156,-0.0114,-0.0068,-0.0028,-0.0001,0.0035,0.0068,0.0106,0.0081,0.0077,0.0074,0.0071,0.0134,0.0136,0.0113,0.0113,0.0113,0,0,-0.0307,-0.0296,-0.03,-0.0284,-0.0265,-0.026,-0.0227,-0.0217,-0.0207,-0.0148,-0.0123,-0.0082,-0.0024,0.001,0.0029,0.0042,0.01,0.0074,0.0071,0.007,0.0134,0.0137,0.0139,0.0113,0.0113,0.0113,0,0,-0.0337,-0.0329,-0.0343,-0.0329,-0.0309,-0.0285,-0.0286,-0.025,-0.023,-0.0203,-0.0156,-0.0111,-0.0056,-0.0007,0.0025,0.0027,0.0075,0.0036,0.0017,0.0077,0.008,0.0083,0.0126,0.0133,0.0041,0.0041,0.0041,0,-0.0356,-0.0367,-0.0343,-0.0349,-0.0344,-0.03,-0.0309,-0.0281,-0.0237,-0.0218,-0.0204,-0.011,-0.0061,-0.0004,-0.0003,0.0021,0.0054,0.0025,0.0073,0.0077,0.008,0.0125,0.0133,0.0038,0.0039,0.0039,0.0039,0,-0.0391,-0.04,-0.0407,-0.04,-0.039,-0.0392,-0.0353,-0.0334,-0.0305,-0.027,-0.0218,-0.0148,-0.0089,-0.0065,-0.0033,0.0019,0.0032,0.0055,0.008,0.0079,0.0126,0.0136,0.0035,0.0036,0.0036,0.0037,0,0,-0.0432,-0.0433,-0.0436,-0.0445,-0.0419,-0.0417,-0.0397,-0.0365,-0.0351,-0.0296,-0.0266,-0.0186,-0.0146,-0.0108,-0.0052,0.0004,0.0059,0.0034,0.0038,0.0071,0.018,0.0156,0.0164,0.0088,0.009,0.0091,0.0199,0,-0.0466,-0.05,-0.0483,-0.0506,-0.0518,-0.0476,-0.0465,-0.0428,-0.0382,-0.0342,-0.0255,-0.021,-0.0161,-0.0134,-0.0068,0.0023,0.0083,0.0027,0.0181,0.0185,0.016,0.0175,0.0096,0.0207,0.0209,0.0211,0.0212,0,-0.0503,-0.0522,-0.0559,-0.0565,-0.0566,-0.0571,-0.0544,-0.0527,-0.0451,-0.0414,-0.0341,-0.0275,-0.0182,-0.0144,0.002,-0.0022,0.0071,0.0146,0.0152,0.0155,0.0179,0.0212,0.023,0.0229,0.0227,0.0226,0.0225,0,-0.0548,-0.0571,-0.0607,-0.061,-0.0608,-0.0615,-0.0608,-0.0554,-0.0539,-0.0457,-0.0433,-0.0312,-0.0252,-0.0122,0.0032,0.0026,0.0209,0.0227,0.0297,0.0297,0.0309,0.0306,0.0347,0.0347,0.0347,0.0347,0.0346,0,-0.0586,-0.0615,-0.0637,-0.0658,-0.07,-0.0675,-0.0693,-0.066,-0.061,-0.0591,-0.0479,-0.0429,-0.0244,-0.0117,0.002,0.0183,0.0208,0.0294,0.0326,0.0283,0.0275,0.0316,0.0311,0.0351,0.035,0.0349,0.0348,0,-0.0624,-0.0638,-0.0686,-0.0711,-0.0726,-0.0756,-0.0766,-0.0768,-0.0713,-0.0681,-0.066,-0.0511,-0.0345,-0.0157,0.0065,0.016,0.0323,0.038,0.0309,0.0335,0.0371,0.0362,0.046,0.046,0.046,0.046,0.046,0,-0.0644,-0.0674,-0.0738,-0.078,-0.0798,-0.0837,-0.0863,-0.0827,-0.0817,-0.0727,-0.071,-0.0551,-0.0434,-0.0135,0.0054,0.0312,0.0351,0.0422,0.0405,0.0363,0.0385,0.0376,0.0367,0.046,0.046,0.046,0.046,0,-0.0681,-0.071,-0.0752,-0.0842,-0.0891,-0.0934,-0.0958,-0.0959,-0.0903,-0.0861,-0.0731,-0.0566,-0.0376,-0.0141,0.0063,0.0247,0.0363,0.0423,0.0424,0.0409,0.0365,0.0384,0.0375,0.0461,0.0461,0.0461,0.0461,0,-0.0707,-0.0751,-0.0816,-0.0886,-0.0959,-0.1001,-0.101,-0.0978,-0.0953,-0.0839,-0.0799,-0.0579,-0.0442,-0.0174,0.0011,0.0189,0.023,0.0272,0.0281,0.0283,0.0196,0.0112,0.0158,0,0,0,0,0,-0.0724,-0.0776,-0.0853,-0.0928,-0.1001,-0.1034,-0.1057,-0.1046,-0.0998,-0.0912,-0.0846,-0.066,-0.0367,-0.0234,-0.0058,-0.0005,0.0241,0.0201,0.0289,0.0463,0.0462,0.0387,0,0,0,0,0,0,-0.0738,-0.0814,-0.0853,-0.0944,-0.1,-0.1064,-0.1079,-0.1049,-0.0981,-0.0909,-0.0743,-0.0641,-0.0348,-0.0463,-0.006,-0.0007,0.0065,0.0349,0.0352,0.0463,0.0462,0.0462,0.0384,0,0,0,0,0]}]]